Theta_e
350 352 354 356 355 355 354 354 353 353 351 350 349 348 349 349 348 349 350 351 351 351 351 351 351 351 352 352 352 352 352 352 352 353 353 353 353 352 352 351 352 352 352 351 350 351 352 352 351 351 350 350 351 352 352 351 349 349 349 348 348 348 347 347 347 347 346 346 346 346 346 345 346 344 345 345 345 345 344 344 343 341 342 344 345
349 354 354 354 355 354 353 353 352 351 352 350 350 350 350 349 348 349 350 351 351 351 351 351 351 352 352 352 352 352 352 352 352 353 353 353 352 352 351 351 352 351 351 352 352 352 351 349 351 351 350 351 351 351 351 350 349 348 348 348 348 348 348 348 348 347 347 346 347 345 346 346 346 346 346 345 344 344 343 344 343 341 341 344 344
352 353 353 353 355 353 353 353 352 352 351 349 350 350 350 349 348 348 350 350 350 350 351 351 351 352 352 352 353 352 352 352 352 352 353 352 352 352 352 351 351 351 352 352 352 352 351 351 351 351 351 351 351 350 349 348 348 347 347 347 347 347 346 345 345 345 345 345 346 346 346 345 344 343 342 342 343 343 342 342 343 342 340 343 343
351 353 353 353 354 353 353 353 353 353 351 350 350 349 349 349 348 348 349 349 350 350 350 351 351 352 352 352 352 352 352 352 353 352 352 353 352 352 352 351 351 352 352 351 351 350 350 350 351 351 351 350 350 350 349 349 348 346 346 346 346 345 345 344 344 344 344 344 343 341 341 339 340 343 343 343 342 342 342 342 342 342 341 341 342
351 353 353 351 351 353 353 353 353 352 350 349 349 350 350 349 348 348 348 349 350 351 351 352 352 352 353 353 353 353 352 353 353 353 352 352 352 352 352 352 352 352 352 351 350 350 350 350 350 350 350 350 350 350 349 348 348 347 346 346 346 345 344 344 344 344 344 344 343 340 336 337 337 338 339 339 341 339 338 338 339 339 339 340 340
352 353 352 351 350 351 353 353 352 351 351 351 351 350 350 349 348 348 349 350 350 350 351 352 352 352 353 353 353 352 352 353 352 352 352 352 353 352 352 352 352 352 351 351 350 350 350 350 350 349 349 349 349 348 348 347 347 346 346 345 346 346 344 344 344 344 344 343 341 338 336 338 339 338 340 338 337 337 337 337 337 337 338 338 339
352 352 351 351 350 351 353 352 351 351 351 349 349 349 348 348 349 348 348 349 350 351 352 352 352 353 353 352 353 352 353 352 352 352 352 352 352 352 352 351 350 349 349 349 349 349 348 348 348 347 347 346 346 346 346 346 346 345 345 344 345 345 344 344 344 343 343 339 337 337 336 335 336 335 339 339 339 338 339 339 337 337 337 337 338
352 352 351 350 349 352 353 352 352 352 350 350 349 347 349 348 349 349 349 350 350 351 351 352 352 352 353 352 353 353 352 352 352 352 352 351 351 351 351 351 350 349 349 347 347 347 347 347 346 346 346 346 346 344 345 344 344 344 344 344 344 343 344 344 343 343 341 336 336 335 334 333 333 334 338 338 337 336 337 336 336 337 337 337 337
351 351 351 349 349 353 352 353 353 352 351 351 350 350 349 349 349 349 349 350 351 351 351 351 352 352 352 352 352 352 352 352 353 352 352 351 350 350 349 349 350 349 349 348 347 345 345 345 346 346 346 346 346 345 344 343 344 345 345 345 344 345 345 344 343 341 338 337 335 334 333 334 333 332 338 339 338 339 340 338 336 337 336 337 336
350 351 350 349 350 352 353 353 352 352 350 350 350 350 349 348 348 348 349 350 350 350 350 351 352 352 352 352 352 352 352 352 352 352 351 350 349 348 347 347 348 348 347 347 345 345 347 347 346 345 346 344 343 343 344 344 345 345 345 345 346 347 345 342 342 341 337 337 336 336 338 338 334 339 339 338 338 340 339 339 337 337 337 338 338
350 350 350 350 350 353 352 352 352 351 351 350 350 350 349 348 348 348 348 349 349 350 350 351 352 352 352 352 352 352 352 352 351 351 350 350 350 349 348 348 347 347 348 347 347 347 347 345 344 344 343 343 343 343 344 344 345 345 344 344 344 344 342 342 340 336 336 334 334 335 339 338 333 341 342 341 341 341 341 341 339 339 339 340 341
350 350 350 350 353 352 352 352 352 351 351 349 348 349 349 348 348 348 348 349 350 350 350 351 351 352 352 352 352 352 352 351 351 350 351 350 350 350 350 348 348 348 347 346 346 345 345 344 345 344 344 343 343 343 344 345 346 345 344 344 343 343 342 340 335 335 334 334 335 334 333 335 336 342 344 344 343 343 342 342 341 341 341 342 342
349 350 350 350 350 352 352 352 352 351 350 350 349 349 348 347 347 347 348 349 349 349 350 351 351 351 352 352 351 351 351 351 350 350 349 348 348 348 347 347 345 344 344 344 343 343 342 342 343 344 343 344 343 343 344 345 345 344 344 343 343 342 341 339 334 333 332 332 333 333 333 335 339 340 341 344 344 343 343 343 342 342 341 341 341
348 349 349 349 349 353 352 351 351 351 350 350 349 348 348 347 347 347 347 348 348 349 350 351 352 351 351 351 351 350 350 350 349 348 346 347 346 346 346 345 344 345 346 345 345 344 344 343 344 344 345 345 344 343 344 345 344 343 344 343 342 341 341 339 336 333 333 334 337 335 335 341 338 341 341 343 343 343 342 341 341 340 340 339 339
347 348 348 348 349 349 352 351 351 350 350 349 348 348 347 347 347 347 347 347 347 348 349 350 352 351 351 350 350 350 350 350 350 349 348 348 348 347 346 346 347 346 344 344 344 343 342 343 343 343 343 344 344 342 344 345 344 343 343 342 341 340 338 333 333 333 334 336 337 338 339 341 343 342 343 344 343 341 340 340 339 338 338 338 337
348 347 348 347 348 349 348 350 350 350 349 348 348 347 347 346 346 346 346 347 347 348 349 349 350 351 351 351 351 350 349 349 349 348 348 345 344 345 345 346 346 345 345 344 343 343 343 343 343 343 343 344 343 342 344 345 343 343 342 341 340 339 338 336 334 333 334 335 337 339 340 342 342 342 342 342 342 341 340 340 338 338 338 337 336
348 348 347 347 348 347 348 348 349 351 349 348 347 346 346 346 346 346 346 347 347 347 348 349 350 350 350 350 350 349 349 348 348 348 348 347 345 345 345 344 344 345 346 345 343 343 343 343 343 343 343 342 342 342 344 345 343 342 341 340 339 339 339 338 333 334 336 338 337 335 338 340 340 342 340 341 341 340 339 337 337 337 336 336 335
347 347 346 346 346 347 347 346 346 346 345 347 347 346 345 345 345 345 345 346 347 347 348 349 349 349 350 349 349 348 348 348 348 347 347 346 346 345 345 345 345 345 345 346 344 343 344 344 343 343 343 342 342 343 344 345 343 341 340 340 340 340 340 339 335 336 338 339 335 339 339 341 342 340 340 340 340 339 339 337 336 336 336 336 336
346 346 346 345 345 344 344 343 344 342 342 342 343 345 346 345 344 344 345 346 346 348 348 348 348 348 349 349 349 349 348 348 347 347 347 347 346 345 344 345 344 345 345 345 344 344 344 344 343 344 343 343 342 342 344 345 343 341 341 341 341 341 341 339 336 336 337 336 335 335 338 341 341 339 338 338 338 338 338 337 337 335 334 333 333
345 345 345 345 344 342 340 340 341 340 340 340 341 341 346 346 344 344 345 346 347 348 348 348 348 348 349 348 348 347 348 347 348 346 347 347 346 345 345 344 344 344 345 345 345 344 344 344 344 344 344 343 344 344 344 344 342 342 342 342 342 342 337 336 335 334 334 336 337 335 339 339 338 337 337 336 337 336 336 335 335 334 333 332 331
343 343 343 343 342 340 338 339 339 339 339 338 338 339 344 346 345 346 347 347 347 348 348 348 347 347 347 347 345 340 340 340 341 343 346 346 346 346 346 344 343 344 345 344 344 345 345 345 344 345 344 343 341 342 343 343 342 342 342 342 342 335 334 334 334 336 335 338 338 333 338 338 337 337 337 336 335 334 334 333 332 333 332 332 332
339 340 342 342 341 340 338 338 338 338 337 337 337 339 342 344 340 341 342 345 346 347 345 343 347 340 347 341 341 343 336 337 339 347 342 345 344 346 346 345 344 344 344 345 344 344 345 345 345 345 345 340 336 329 334 344 342 341 343 342 334 333 333 334 334 335 336 335 336 335 337 337 335 335 335 335 334 333 333 332 332 332 332 331 332
337 339 339 341 341 340 338 338 337 336 337 337 338 339 339 338 336 338 343 345 345 345 341 342 338 340 341 341 341 338 336 336 337 343 344 346 345 345 346 345 345 344 344 344 345 344 344 345 345 345 342 337 330 328 328 328 339 343 343 334 331 332 333 333 333 334 333 334 334 337 336 335 334 334 334 333 333 334 332 332 332 331 331 331 331
336 338 338 340 340 339 338 337 337 336 337 340 341 338 336 336 338 338 338 339 340 341 339 341 342 342 340 337 335 336 332 331 344 345 343 340 339 346 346 345 345 345 344 341 342 344 344 343 343 343 337 334 331 329 328 329 332 332 330 330 331 331 332 332 333 332 331 334 331 338 335 335 334 334 333 333 333 332 330 333 332 332 331 331 333
337 338 339 338 339 339 339 338 338 338 340 341 342 340 338 337 338 339 339 338 339 338 338 340 343 343 341 337 334 335 332 330 330 332 333 335 335 336 338 336 336 336 342 336 333 333 335 332 330 334 333 335 332 329 329 329 332 331 330 330 331 331 331 333 332 331 331 332 334 338 336 335 334 334 334 333 332 330 331 331 331 331 330 331 334
336 336 337 338 339 339 339 339 340 339 341 342 341 342 339 338 338 339 337 336 336 336 336 336 339 340 340 339 337 328 330 329 329 330 332 334 335 335 335 335 333 335 340 336 333 333 333 332 333 333 335 336 335 332 332 332 330 330 330 330 330 331 331 331 331 331 331 331 334 338 336 335 335 335 336 334 331 330 331 332 331 330 328 329 330
335 335 337 337 338 338 339 339 339 339 340 342 342 341 338 338 337 337 335 334 332 333 333 333 336 337 338 340 335 331 329 330 331 331 333 333 334 335 334 334 334 334 337 336 334 333 333 334 332 332 333 335 335 334 331 330 330 330 330 329 330 330 330 330 330 330 330 331 334 338 336 335 336 336 336 334 332 332 332 333 331 331 330 330 330
334 334 335 336 337 337 338 339 339 340 339 341 341 340 339 337 337 341 336 338 333 331 331 334 336 336 336 336 337 332 330 331 331 332 333 333 334 334 333 334 334 332 334 335 334 333 332 333 333 332 334 334 334 334 333 330 330 331 331 330 329 329 330 330 330 330 330 330 333 338 336 336 339 337 335 334 332 332 333 333 332 331 331 330 331
332 333 334 335 335 337 337 338 339 340 339 341 340 340 339 337 339 338 336 341 331 332 333 335 335 336 336 336 336 330 330 329 330 331 331 332 332 333 333 333 332 332 331 332 333 332 331 331 331 332 332 332 332 332 333 332 331 331 331 331 329 329 329 329 329 329 329 330 331 335 337 336 338 338 335 335 334 331 333 334 333 332 331 332 332
333 334 335 335 335 337 337 338 340 339 340 340 339 338 337 338 338 338 336 339 331 331 333 332 333 335 335 336 337 334 331 330 330 330 331 332 332 332 334 332 332 331 331 331 331 331 331 329 329 331 332 332 333 333 335 331 331 332 331 331 330 329 329 329 329 329 329 330 331 334 337 337 338 338 338 336 335 334 332 332 333 334 333 333 332
335 334 335 335 337 336 336 338 339 341 340 339 338 338 337 337 337 335 336 334 332 332 331 331 331 332 333 335 335 336 334 332 331 331 332 332 331 332 332 332 332 332 331 331 330 330 330 330 330 330 330 331 332 332 333 331 328 329 330 330 330 329 328 329 329 329 329 330 330 332 337 337 336 337 338 338 336 335 334 335 335 335 335 334 332
334 334 335 337 337 336 335 337 339 341 339 338 338 337 336 335 334 333 333 333 333 330 330 331 332 330 332 332 332 332 335 335 335 334 334 333 332 331 331 331 332 333 333 333 332 330 330 330 330 331 331 331 332 331 331 331 327 327 328 329 329 328 328 328 328 329 329 329 329 331 334 336 337 337 337 337 338 336 334 336 335 336 335 333 332
336 336 337 338 337 337 337 338 339 340 336 336 336 335 335 334 332 332 334 335 332 332 332 333 333 332 332 331 332 333 335 334 334 334 335 334 333 332 332 332 332 333 333 333 334 333 330 329 329 331 330 330 330 330 330 327 327 328 329 329 328 328 328 328 328 328 329 329 329 330 332 335 336 337 337 336 339 337 335 335 334 335 334 333 331
335 336 337 337 338 339 339 338 338 337 335 333 334 333 332 333 336 336 337 336 334 333 334 334 334 334 333 333 333 334 336 336 335 335 334 332 331 332 332 332 332 332 333 333 333 333 332 331 330 329 332 330 328 328 328 328 329 328 329 329 328 328 328 327 328 328 329 329 329 330 331 332 333 335 335 335 338 338 337 337 334 334 333 332 332
336 336 336 337 338 338 338 337 338 336 337 335 333 332 332 335 335 335 335 336 335 334 333 333 333 333 333 333 334 334 335 335 336 336 335 334 332 331 331 332 332 332 332 333 333 332 332 331 331 330 329 329 329 329 329 328 327 329 329 330 328 328 328 327 328 328 328 329 329 330 331 331 332 332 335 336 338 338 338 338 333 334 333 332 331
335 336 337 338 338 338 339 336 336 335 333 335 333 333 333 333 334 336 331 334 336 336 335 334 334 334 334 334 334 334 335 335 335 336 335 335 334 333 333 332 332 332 332 332 332 332 332 331 331 331 329 329 328 328 328 327 327 328 328 329 329 330 328 328 328 328 329 329 329 329 330 330 331 331 334 334 336 337 338 337 335 336 333 332 331
336 335 336 337 336 338 338 336 334 332 333 332 333 333 333 333 334 335 334 334 335 335 336 335 335 334 334 334 334 334 335 335 335 336 336 336 335 334 334 333 333 332 331 331 332 332 331 331 331 331 330 329 328 328 327 326 327 328 328 328 329 330 328 328 328 328 330 329 328 329 329 330 331 334 335 332 333 334 337 338 335 336 335 332 332
336 335 336 337 335 336 336 336 335 333 332 332 332 332 334 333 332 334 337 334 333 333 334 335 335 334 334 334 334 334 335 334 335 335 335 336 335 334 334 333 332 331 330 329 330 330 331 331 330 330 331 329 329 328 327 327 327 327 327 327 328 329 329 329 329 331 328 327 327 328 329 330 330 331 333 332 331 331 334 336 336 337 335 333 332
337 337 337 337 337 336 336 337 335 334 331 333 335 334 334 334 333 331 330 329 329 329 329 331 332 332 332 333 335 334 334 334 335 335 335 335 336 336 335 335 334 333 332 331 331 330 329 330 330 330 331 330 329 329 329 328 326 326 327 327 327 328 329 329 330 329 328 328 328 329 328 328 329 330 331 330 330 329 331 333 335 335 334 335 333
337 337 336 337 336 336 336 335 334 334 334 332 332 332 333 333 332 331 329 328 327 329 328 329 329 330 332 333 335 335 334 335 334 334 335 335 335 336 335 335 335 334 333 332 331 331 330 329 329 329 329 329 330 330 330 328 327 326 326 327 326 327 328 329 329 329 328 328 328 329 328 327 328 329 329 329 329 328 329 332 333 330 332 332 332
336 336 336 336 336 335 334 333 334 334 333 332 331 329 329 330 331 330 329 329 329 329 330 329 329 331 332 333 333 334 333 333 334 333 334 335 336 336 335 335 335 334 333 332 333 332 332 331 331 331 329 328 328 329 329 328 326 324 325 325 325 326 329 329 327 328 328 329 328 328 328 328 328 328 329 329 328 328 328 330 330 328 329 330 331
334 335 334 334 335 335 334 333 332 331 330 330 329 328 325 325 322 321 327 326 326 327 329 329 330 331 331 331 332 332 332 332 333 333 334 334 334 335 335 335 335 334 333 334 333 334 333 331 330 328 330 328 328 329 328 326 321 322 321 320 323 324 327 328 326 327 328 328 328 328 328 327 327 327 329 328 327 327 327 328 328 327 328 329 329
333 333 334 334 334 333 332 331 330 328 328 331 328 328 328 329 328 326 327 327 327 330 328 328 330 330 330 330 331 330 331 331 331 333 333 334 334 334 334 335 334 334 333 332 332 331 332 331 331 329 328 328 328 330 328 328 324 323 323 321 318 318 321 324 326 327 327 327 328 327 327 327 327 328 328 328 327 326 326 327 327 326 327 328 328
332 332 332 332 332 331 331 331 330 330 329 331 331 329 331 331 332 333 331 331 331 331 329 330 330 330 330 330 331 330 330 331 332 333 335 334 334 334 334 334 334 334 333 331 331 330 331 331 331 330 329 325 325 326 330 328 326 323 317 318 318 318 314 317 320 324 327 327 327 327 327 326 327 328 327 327 327 327 326 326 326 325 326 327 327
330 331 331 331 329 328 328 328 328 328 329 331 332 332 331 329 330 329 328 329 330 330 329 328 327 329 329 328 329 330 330 331 332 333 335 335 335 335 334 334 334 334 333 331 331 331 332 332 331 330 328 326 324 326 327 328 327 328 325 318 314 313 315 316 319 321 325 324 326 327 328 327 327 327 327 327 327 327 326 326 326 325 326 327 327
327 328 328 327 326 326 327 326 326 327 327 328 329 330 328 326 325 325 325 325 325 326 325 325 326 327 327 329 330 329 329 329 330 331 332 334 334 334 334 333 333 334 333 332 332 331 331 330 331 330 329 329 326 325 325 327 328 327 327 326 323 318 317 318 319 314 322 326 327 327 327 329 329 327 327 327 327 326 326 326 326 325 325 326 327
324 326 326 325 325 325 325 325 325 325 327 328 329 329 327 326 326 326 325 324 323 325 328 329 328 329 329 328 329 329 328 327 327 328 328 330 331 332 333 333 333 333 333 332 331 330 331 331 332 331 329 329 328 324 324 325 325 326 327 327 326 324 323 320 316 316 315 321 325 326 326 328 329 328 326 327 327 326 326 326 326 325 325 326 327
323 324 323 324 323 323 323 323 324 324 325 326 326 327 325 325 325 325 325 324 324 324 326 328 328 329 327 327 327 327 327 326 326 326 327 327 329 330 331 332 332 333 333 331 330 331 331 331 332 331 331 330 328 326 325 326 323 322 326 325 326 326 326 324 322 319 317 315 319 326 328 328 328 328 328 327 327 327 326 325 325 325 326 325 327
321 321 322 322 322 322 323 323 322 323 323 324 325 325 326 325 324 324 323 324 325 325 327 328 327 327 326 326 325 325 325 325 325 326 326 326 328 328 329 330 330 331 331 331 331 331 331 330 329 329 329 329 329 328 326 325 324 324 323 324 325 324 324 324 324 323 317 315 316 319 321 326 327 328 328 329 329 328 327 326 326 325 326 326 326
321 321 321 321 321 321 321 320 321 322 323 323 323 323 324 324 323 323 322 322 323 323 324 323 323 324 324 324 323 322 322 323 324 326 326 327 328 328 328 328 328 328 330 330 331 330 330 330 330 329 330 329 330 328 325 325 326 326 325 324 322 323 323 322 322 322 321 320 316 317 321 320 319 324 327 328 329 329 328 328 326 326 325 326 326
319 319 319 319 319 319 319 319 320 321 321 321 322 322 322 322 322 322 321 321 321 320 319 318 319 319 320 321 322 321 321 322 324 325 325 326 327 328 328 328 328 328 328 328 329 330 330 330 330 329 329 328 328 327 326 326 326 325 325 325 324 323 322 320 320 321 320 318 317 317 320 323 322 321 324 327 328 329 329 329 327 327 326 326 327
Wind_Speed
8 12 10 14 15 16 19 18 17 15 15 16 16 16 16 16 17 18 17 16 17 17 17 16 16 15 15 14 14 14 14 14 14 14 14 14 15 15 15 15 15 15 15 16 17 15 15 15 15 15 15 16 17 16 17 17 17 16 17 17 16 16 15 16 16 15 14 14 14 14 14 14 14 14 14 14 15 14 14 14 12 9 8 12 15
10 11 9 11 15 17 19 18 17 15 15 16 16 15 15 16 17 17 17 17 17 16 16 16 16 15 15 15 14 13 14 14 14 15 14 14 14 15 15 15 15 16 15 16 16 16 17 16 16 15 16 16 17 17 17 17 16 16 16 16 15 15 15 15 15 15 15 14 14 14 15 15 15 15 15 15 14 14 13 13 13 7 7 13 15
9 10 9 12 17 18 19 18 17 16 15 16 16 16 16 16 17 16 16 16 16 16 15 15 15 15 15 15 15 14 14 15 15 14 14 14 14 15 15 15 16 15 16 16 16 16 16 15 15 15 16 16 16 16 16 17 16 16 16 16 15 15 15 14 15 15 14 15 14 14 16 16 14 14 14 14 14 13 13 13 13 12 9 14 14
12 9 9 13 18 17 18 18 17 17 16 16 16 16 16 15 16 16 16 15 15 15 15 14 15 15 15 15 15 15 15 15 15 15 14 14 15 15 15 15 16 15 16 15 16 16 15 15 15 15 15 15 15 15 15 15 15 15 15 15 14 14 14 13 14 14 14 13 12 9 5 6 9 14 14 14 14 14 13 14 14 14 14 13 15
12 10 9 9 9 15 18 18 18 16 17 16 16 16 16 15 15 15 15 14 14 15 15 15 14 14 15 15 14 14 14 15 15 14 14 14 14 15 14 14 15 15 15 15 15 15 15 15 15 15 14 14 15 15 15 14 15 14 14 14 14 13 13 13 13 14 14 13 12 7 5 5 6 11 12 12 13 13 12 13 13 13 13 14 14
11 10 9 9 8 11 18 18 18 17 17 16 16 16 16 15 15 14 14 14 14 14 14 14 15 15 15 15 14 14 14 15 15 14 13 13 12 14 15 14 14 14 14 14 14 14 14 14 14 14 13 13 14 14 14 13 13 12 12 11 13 13 12 12 13 13 13 13 11 6 6 5 4 6 13 11 11 12 12 13 12 12 13 14 13
13 9 10 9 7 10 17 18 18 17 16 17 16 16 16 15 14 14 14 14 13 14 14 13 14 13 13 14 14 14 14 14 15 14 14 13 13 13 15 14 13 13 13 13 13 13 14 13 14 13 12 12 13 13 12 11 10 9 8 8 8 11 12 12 12 12 12 7 5 5 5 5 4 2 13 12 12 13 13 13 13 12 12 13 13
9 9 9 8 6 12 17 18 18 17 17 17 16 16 15 15 15 14 14 14 13 13 13 13 13 14 14 14 14 14 14 14 15 14 13 12 13 12 13 13 13 12 12 11 12 13 13 12 12 12 11 12 12 12 11 10 9 8 7 5 4 5 10 12 12 12 11 5 4 4 4 4 3 3 11 11 11 12 12 12 11 13 13 13 12
9 9 9 7 7 16 17 17 17 17 17 16 16 15 15 15 14 14 14 13 12 13 12 12 13 13 13 13 14 14 14 14 14 14 14 13 13 13 12 13 12 12 11 11 10 10 11 11 12 11 11 11 11 11 11 10 9 8 8 6 4 7 11 12 12 11 6 5 5 4 4 3 4 3 10 11 11 12 12 11 11 13 13 12 12
9 8 8 6 7 15 15 16 16 17 17 17 16 15 15 14 14 14 14 14 12 12 12 12 13 13 12 13 13 13 13 14 14 13 12 12 12 11 11 11 11 11 10 9 8 9 10 11 11 11 11 11 10 11 10 9 9 10 11 11 12 14 14 13 12 9 5 5 5 5 4 4 4 4 10 10 12 12 11 11 8 10 11 13 13
10 8 7 7 9 13 14 15 16 16 17 16 15 15 14 14 14 14 14 13 12 11 11 11 12 12 12 12 12 13 13 13 12 12 12 11 11 10 10 10 10 10 10 9 9 9 9 9 9 10 11 11 10 9 10 10 10 12 13 14 15 15 14 13 9 5 5 5 4 3 4 6 4 4 10 11 12 12 11 11 12 13 13 12 11
9 9 7 7 13 13 13 15 16 16 16 16 16 15 14 14 14 14 13 13 12 11 10 10 10 12 12 11 12 13 13 12 12 11 11 10 10 10 11 10 10 10 10 10 9 9 8 8 8 9 10 11 10 10 10 10 12 14 14 14 14 14 13 12 6 5 5 5 5 4 5 4 3 8 13 12 13 13 12 10 11 12 12 13 14
10 8 8 7 8 12 13 14 16 15 15 15 15 15 14 14 14 13 12 10 11 10 10 9 9 9 10 11 12 12 12 12 12 11 11 10 9 9 9 9 9 9 9 9 9 8 8 8 9 9 9 10 10 10 11 11 13 14 14 14 14 14 13 11 6 6 5 5 4 4 5 4 4 10 11 12 12 13 12 14 14 13 13 13 13
10 9 7 7 7 15 14 13 14 15 14 14 14 13 13 13 14 12 10 9 10 10 9 9 9 10 10 12 11 11 12 12 11 11 11 9 9 8 8 8 8 8 9 8 8 9 8 8 8 8 8 8 9 10 11 12 14 14 14 13 13 13 13 9 6 5 5 5 4 4 4 2 1 9 10 10 11 12 12 12 12 12 13 12 11
12 10 9 7 7 8 16 13 12 14 13 11 12 12 13 12 12 12 11 11 10 10 9 10 10 11 11 11 11 11 11 11 12 11 11 9 8 8 7 6 7 8 8 8 8 8 8 7 7 7 8 7 8 9 11 12 14 14 14 13 13 12 11 6 4 4 4 4 4 4 3 2 6 9 10 11 12 12 11 11 11 11 10 11 10
9 11 8 6 7 8 8 13 14 13 12 13 12 12 12 12 12 12 11 10 10 10 9 9 10 11 10 9 9 10 11 11 11 11 10 9 8 7 6 5 6 6 7 7 7 7 7 7 6 7 8 7 7 9 10 12 14 14 13 12 12 12 11 7 5 4 4 4 4 4 4 5 9 9 9 10 11 10 10 10 10 9 9 9 9
8 9 8 7 7 6 6 6 9 15 13 13 12 13 12 12 12 12 11 11 11 10 10 10 11 11 10 9 8 9 10 10 10 10 10 9 8 7 6 4 4 5 6 6 6 6 7 6 6 6 7 8 7 8 9 11 14 14 13 13 12 12 11 8 5 4 4 4 3 3 4 4 8 8 9 9 10 10 10 8 8 8 7 8 8
8 8 8 7 6 6 6 5 6 7 6 10 13 13 12 12 11 10 10 11 10 10 10 10 10 11 11 10 9 9 9 9 9 9 9 8 8 7 5 5 4 4 4 5 5 5 5 6 6 7 7 7 9 9 9 10 13 13 12 13 13 12 11 9 5 4 4 3 4 3 3 5 7 8 9 9 9 9 9 9 8 7 7 7 7
8 8 7 8 7 6 5 6 6 5 6 5 5 9 13 12 11 11 10 11 10 10 11 10 10 10 10 10 10 10 9 9 8 8 8 8 7 6 5 4 3 3 4 3 4 4 4 5 6 7 7 8 9 8 8 9 12 12 12 12 13 12 12 6 4 5 4 3 3 3 3 5 5 8 8 8 8 8 8 8 8 7 6 6 5
7 7 7 6 6 6 5 5 6 5 4 4 5 4 10 12 11 10 10 10 10 10 10 9 9 9 9 8 8 5 6 5 7 5 6 7 7 4 5 3 2 3 2 3 4 4 5 5 6 7 8 9 9 8 9 9 11 11 11 12 12 12 6 4 5 5 4 3 2 3 3 4 5 7 7 6 6 7 7 7 7 6 6 5 5
5 6 5 6 6 6 5 5 5 5 5 4 4 5 7 11 9 11 10 10 9 10 9 9 8 7 6 6 6 5 4 3 2 1 5 4 6 5 5 3 2 2 3 4 4 5 5 5 6 7 8 9 8 8 8 9 10 10 11 11 11 6 5 4 4 4 4 3 2 2 5 5 5 7 7 6 6 6 6 5 5 5 5 5 4
6 6 5 6 6 5 5 5 5 5 4 4 3 3 4 7 4 4 4 6 8 8 5 3 5 2 6 6 4 4 3 3 3 4 3 1 2 4 4 3 2 1 2 3 3 4 5 5 6 7 9 9 7 5 4 6 10 10 10 10 6 5 5 5 4 4 4 3 2 3 6 6 5 5 5 5 5 5 5 5 5 5 3 4 4
6 6 6 6 5 5 4 5 5 4 5 4 3 3 5 4 4 3 3 5 4 4 3 3 4 5 5 4 3 3 3 2 1 1 1 2 1 2 3 2 1 0 1 1 2 3 4 5 6 7 10 8 4 4 4 3 4 10 7 5 4 4 5 5 4 4 4 3 3 4 4 4 3 3 3 4 5 6 6 6 5 5 5 5 3
7 5 6 4 6 5 5 5 5 5 5 4 4 4 4 4 4 4 3 3 4 4 4 4 4 4 4 3 3 3 3 2 4 6 5 2 2 3 2 2 1 2 3 4 5 4 6 6 6 7 5 4 3 3 4 3 3 4 4 4 3 4 5 4 4 4 4 4 4 6 6 5 3 3 3 3 5 5 4 7 6 5 4 3 3
6 5 6 7 6 6 6 5 5 5 5 4 4 4 4 4 3 3 3 3 4 4 4 4 4 4 4 3 3 3 2 2 2 2 3 2 2 3 3 2 1 2 3 2 3 3 3 3 3 3 3 4 3 3 3 3 3 4 4 4 3 3 3 3 3 3 4 4 4 6 7 5 4 4 4 3 4 4 5 5 6 6 5 4 6
5 6 7 6 6 6 5 5 5 5 4 4 4 4 5 3 3 3 3 3 4 4 4 3 4 3 3 2 1 3 3 3 2 2 2 1 1 1 1 2 2 2 2 1 2 2 2 2 3 3 2 3 3 2 2 3 4 3 3 4 4 4 3 3 3 3 3 3 4 7 7 6 5 6 6 5 4 4 4 5 5 4 4 2 2
7 7 6 5 5 5 5 5 6 5 5 4 4 3 4 3 3 3 3 3 3 3 3 3 3 3 3 3 2 0 2 1 1 1 1 0 2 2 2 1 1 0 1 2 3 2 2 2 2 2 3 1 3 3 3 3 4 5 4 4 4 4 4 4 4 4 4 3 3 9 8 8 7 7 7 6 5 6 5 6 6 6 6 4 4
5 6 4 5 5 6 5 6 5 5 5 6 4 4 4 4 3 4 3 3 3 3 2 3 3 3 2 2 3 2 1 1 3 3 2 1 2 2 2 2 1 1 1 1 3 3 3 2 3 3 3 3 3 3 3 3 4 4 4 4 4 4 4 4 4 5 4 3 4 7 10 10 7 9 6 7 5 6 9 5 6 7 7 6 6
5 5 5 4 5 5 6 6 6 6 5 5 5 4 3 3 2 3 3 3 2 2 2 3 2 2 2 2 2 3 3 2 3 3 3 3 2 1 2 2 2 2 1 1 1 3 3 3 3 3 3 4 3 3 3 2 3 3 4 5 5 5 5 4 5 5 5 4 4 5 11 11 6 6 8 7 7 5 8 9 8 7 8 8 6
6 6 6 5 4 5 6 6 6 5 5 5 4 4 3 3 3 3 2 2 2 3 3 2 2 2 1 2 2 2 2 3 3 2 1 3 4 3 2 2 2 1 0 2 2 2 4 4 4 4 4 4 4 3 2 3 3 4 4 4 5 6 5 5 5 5 5 4 4 4 11 10 8 8 6 8 8 8 6 6 7 8 7 7 7
7 7 6 6 5 6 6 6 6 7 5 4 4 4 4 3 3 3 2 2 2 3 2 2 2 1 1 2 2 3 2 2 2 2 2 2 3 3 4 3 2 0 1 1 2 3 3 3 4 4 4 4 4 2 2 1 2 2 4 4 5 5 5 5 4 4 4 4 4 4 6 12 10 9 6 9 9 8 8 8 8 8 7 7 6
7 6 5 4 5 4 4 4 5 5 5 4 5 4 3 3 4 3 2 2 2 1 1 1 0 0 1 2 2 2 1 2 2 2 2 2 3 3 3 3 4 2 1 2 3 2 4 4 3 3 4 4 4 3 2 2 3 2 3 4 4 5 5 5 5 5 4 4 4 4 4 5 12 10 9 6 7 8 8 10 9 9 9 7 6
3 4 5 5 5 4 4 4 4 5 5 4 4 3 3 3 3 3 2 2 1 1 1 1 2 2 2 2 2 3 2 2 2 2 3 2 2 3 3 3 4 3 1 4 3 3 3 3 3 1 3 3 3 3 1 1 2 2 2 3 3 4 4 5 5 4 4 4 3 3 4 4 5 9 10 9 7 7 9 10 9 10 9 7 6
5 3 6 5 4 4 4 4 4 5 4 3 4 4 3 3 3 3 2 2 1 1 2 1 2 2 2 2 2 2 3 3 3 3 2 2 2 3 3 3 3 3 2 3 3 3 4 4 4 3 3 2 3 2 1 3 3 2 2 3 3 4 4 5 6 5 4 4 3 3 3 4 4 4 5 11 9 7 10 6 9 9 8 7 8
5 5 7 5 5 5 5 4 5 4 5 4 4 4 3 3 3 2 2 2 2 1 0 1 2 3 2 2 2 2 3 4 4 4 3 3 3 3 3 4 3 3 3 3 4 3 4 5 4 5 4 3 2 3 3 4 4 5 3 3 4 4 4 5 5 5 5 5 4 3 3 3 3 4 3 4 9 10 10 7 8 8 9 8 9
7 5 6 6 5 5 5 5 5 5 5 4 4 3 3 3 2 3 1 1 1 0 1 2 2 2 2 2 2 2 3 3 4 4 5 4 4 5 5 3 4 3 3 3 4 5 4 4 5 4 5 4 3 6 4 4 4 5 4 3 4 5 5 5 6 6 5 4 4 3 2 3 3 3 4 4 5 5 10 7 6 8 8 10 9
7 6 6 5 5 5 5 5 5 6 4 4 3 4 3 3 2 2 1 1 1 1 1 2 2 2 2 2 2 2 3 3 4 4 5 5 4 5 5 3 3 4 3 4 5 5 3 5 5 5 6 4 4 7 6 3 4 4 4 4 4 5 6 6 7 7 5 5 5 4 4 4 6 7 5 5 5 5 7 9 7 9 9 10 10
6 6 4 4 5 4 4 4 5 7 5 4 3 3 3 3 2 2 1 1 1 2 3 3 3 3 3 3 3 3 3 3 4 4 4 5 5 6 6 4 2 2 3 4 4 3 4 4 6 6 4 3 5 7 7 2 0 5 5 5 4 5 6 6 6 6 6 6 6 7 7 6 7 5 5 5 5 5 4 8 11 9 11 9 10
6 6 5 4 5 5 4 4 5 5 4 4 4 4 4 3 2 2 2 2 2 2 2 2 3 3 3 3 3 3 3 3 4 4 4 4 5 6 5 4 3 3 3 3 4 3 4 4 6 6 5 5 8 7 7 5 7 7 5 6 4 6 5 5 5 6 6 6 6 7 5 7 5 4 4 5 5 5 5 5 5 5 6 11 9
7 6 6 5 5 5 4 4 4 4 5 5 4 4 3 2 2 3 3 3 3 3 1 2 2 3 2 2 3 3 3 4 4 4 4 4 5 5 4 4 3 3 4 4 5 4 5 5 6 7 6 5 7 6 6 6 6 7 7 6 4 4 5 5 6 6 5 5 6 6 6 4 4 4 5 5 4 5 5 6 4 5 5 8 11
7 7 7 6 5 5 4 4 4 4 4 4 3 2 2 1 1 1 1 3 2 2 3 3 3 4 3 3 2 3 3 3 3 3 3 4 4 4 4 4 3 3 4 5 6 6 6 5 5 4 6 6 6 6 6 4 3 2 3 4 2 3 4 6 7 6 6 6 6 7 6 6 5 5 5 5 5 5 5 6 5 4 5 5 7
7 6 6 6 6 5 5 4 4 4 3 3 2 2 1 1 1 1 1 2 3 4 4 4 3 2 2 2 2 2 3 3 2 3 4 4 4 4 4 5 4 4 4 5 6 6 5 5 5 5 4 6 5 5 4 4 3 5 3 2 3 3 4 5 5 6 6 5 6 6 5 6 6 6 5 5 5 5 5 5 5 6 5 6 6
6 6 6 7 6 5 4 4 4 3 2 3 2 1 2 2 1 0 0 2 1 2 2 2 3 5 5 5 4 3 3 3 3 3 3 3 3 4 4 4 4 4 4 4 5 6 6 6 6 6 6 4 5 3 5 7 4 3 2 1 3 2 3 4 4 6 7 7 7 8 7 7 8 6 6 6 6 6 5 5 6 6 6 6 6
6 6 6 6 5 5 5 5 5 3 3 1 2 2 2 2 1 0 2 3 3 2 3 6 7 7 7 6 7 6 5 4 3 3 2 3 4 5 5 4 4 4 4 5 5 5 6 6 7 7 7 6 3 4 6 7 5 4 2 5 2 2 2 6 7 6 7 8 9 9 8 8 7 6 7 9 8 7 5 5 6 7 7 6 6
6 6 6 6 6 6 7 6 5 5 4 4 3 3 4 5 4 4 3 2 2 5 6 6 5 4 5 7 7 7 7 6 5 4 4 4 4 3 4 4 4 4 4 5 5 6 6 6 6 7 6 6 7 3 4 6 8 8 5 2 1 1 4 2 3 4 6 7 10 10 9 9 9 8 8 8 7 7 6 6 6 6 7 6 6
7 7 7 8 8 7 7 6 6 5 5 5 3 4 5 5 5 5 5 5 5 5 6 6 5 6 6 4 6 7 7 7 6 6 5 5 5 5 4 4 5 5 4 3 5 6 6 6 5 6 7 6 6 6 5 5 8 7 8 6 2 2 2 2 1 3 1 6 6 8 9 10 8 9 8 7 8 8 7 7 6 7 7 6 6
7 7 8 9 9 8 7 7 6 5 5 6 5 5 6 6 6 6 5 4 4 4 2 2 3 3 4 6 5 7 7 7 7 7 6 6 5 5 5 5 5 4 4 5 5 5 6 6 6 6 6 5 6 8 8 5 4 7 9 9 8 5 4 3 5 1 4 2 6 7 8 9 9 7 8 10 10 8 7 7 7 7 7 6 6
7 8 8 8 9 8 8 8 6 6 5 5 7 5 6 5 6 6 5 4 4 3 3 3 3 3 5 5 5 6 7 6 6 6 6 6 6 6 6 6 6 5 6 5 5 5 5 5 6 6 6 6 6 7 7 6 7 4 8 8 8 9 8 6 4 6 4 3 3 5 5 8 8 10 10 10 10 10 10 9 9 7 6 7 7
6 8 7 7 7 8 8 8 8 6 5 5 6 7 6 6 4 4 6 3 3 3 3 3 4 4 5 5 6 6 6 6 6 6 6 7 7 6 5 5 5 5 4 5 5 6 7 6 7 7 7 6 6 7 7 6 5 7 4 7 8 9 8 6 4 3 5 5 6 5 6 5 8 10 10 9 10 9 9 9 8 8 7 7 7
7 8 7 7 7 6 7 8 8 5 4 5 6 6 5 5 5 5 5 4 3 3 3 4 4 4 6 6 5 5 5 6 6 6 7 7 7 6 6 6 6 5 5 5 5 6 6 6 7 8 8 9 5 4 4 5 5 6 6 6 5 6 5 5 5 5 5 5 7 5 6 7 9 9 9 10 12 10 10 9 9 9 8 7 7
7 8 8 8 7 8 8 9 6 6 7 7 7 7 6 6 5 5 5 4 4 4 4 4 4 6 6 6 5 5 5 5 6 6 7 8 7 7 7 7 6 6 5 6 5 5 6 6 7 7 7 7 6 5 5 6 6 6 7 6 7 7 7 8 8 7 7 5 5 8 7 7 10 9 10 11 10 11 11 10 9 9 9 9 9
Wind_Direction
160 144 134 132 132 126 118 117 118 118 116 112 110 111 112 113 115 114 113 112 111 111 112 113 113 113 113 112 112 112 112 112 112 112 111 109 110 110 109 106 103 102 103 101 100 101 98 94 89 90 90 87 86 89 86 85 84 86 87 85 84 83 79 78 78 77 78 79 79 79 81 80 80 81 80 77 75 71 68 67 63 62 68 67 69
152 142 132 134 132 127 120 121 122 120 116 113 109 108 111 113 115 115 115 115 114 113 113 114 115 115 115 114 114 112 115 114 113 111 111 111 110 110 109 106 104 103 100 101 99 98 97 98 96 92 88 84 86 85 86 85 85 84 82 80 79 78 78 77 76 77 78 79 77 81 81 79 78 77 78 78 79 74 72 71 67 58 62 68 68
137 135 130 134 133 128 123 124 122 121 117 113 110 111 111 113 115 116 116 116 115 115 115 116 116 115 115 114 114 116 117 116 114 112 111 110 109 108 106 106 105 104 102 98 97 96 94 90 88 87 86 85 85 89 90 88 85 84 84 83 81 79 77 79 78 73 70 70 71 68 76 78 77 79 84 82 77 75 75 75 73 69 70 67 65
138 130 133 132 137 129 125 125 123 121 118 114 112 111 113 113 114 117 117 117 115 115 114 114 114 114 115 115 116 118 118 117 113 111 110 111 109 108 107 107 107 105 102 100 99 99 95 91 90 88 86 85 87 92 92 87 83 83 83 81 81 80 78 77 79 79 74 71 65 56 38 50 74 79 83 84 86 84 79 79 78 76 74 72 70
137 133 132 130 138 130 127 125 123 120 119 118 115 113 113 113 114 117 118 116 114 113 112 113 113 115 116 117 117 118 119 116 112 111 110 106 106 106 105 104 105 102 101 101 102 100 95 92 89 87 86 85 84 88 92 93 89 86 85 84 82 82 80 78 75 75 73 68 62 56 43 50 68 79 78 82 83 81 83 84 82 78 76 73 73
136 132 131 132 139 133 127 125 123 122 122 119 116 115 115 116 116 117 118 115 113 112 110 111 113 115 116 116 117 116 115 112 110 108 105 103 103 105 104 102 101 102 102 102 102 102 100 95 89 87 86 85 86 90 91 92 92 90 90 90 84 81 83 83 80 76 72 64 56 42 40 44 58 87 92 92 93 96 94 88 82 83 80 76 74
133 129 134 137 137 135 128 126 125 124 123 122 120 119 121 121 120 120 121 117 114 113 110 112 116 115 115 117 116 115 112 110 107 105 105 105 103 103 102 100 97 98 99 101 102 101 100 97 94 90 90 94 95 93 93 92 95 90 85 89 102 88 86 87 83 80 74 63 48 47 37 40 34 19 92 94 93 88 86 85 86 85 83 82 77
125 130 136 137 134 136 129 127 128 126 126 123 122 122 122 122 122 123 122 118 115 112 109 114 116 117 117 117 115 114 111 110 107 107 102 101 102 100 99 99 100 100 98 97 97 101 103 101 101 100 99 102 102 100 94 91 83 72 67 73 103 122 103 98 92 84 76 68 58 67 57 39 29 63 96 97 100 100 94 90 93 94 91 85 80
124 129 131 130 134 133 131 128 128 128 126 124 124 122 122 124 125 125 124 117 114 115 115 117 117 118 117 115 115 113 112 110 109 104 97 94 95 92 95 96 92 89 87 86 87 91 100 107 107 104 104 102 98 95 90 82 75 73 78 86 119 142 121 105 96 86 76 70 69 70 70 34 6 352 93 95 96 93 88 87 93 94 92 88 87
122 120 127 126 133 132 130 129 129 127 127 127 125 124 124 127 127 126 123 119 118 117 117 116 117 115 116 116 115 114 111 107 103 96 92 93 91 91 93 98 99 99 99 98 93 95 98 101 105 107 101 97 94 92 87 81 81 94 98 94 99 117 117 105 98 89 85 83 85 90 95 55 9 24 105 102 99 99 104 106 102 99 96 96 95
119 123 124 125 133 129 131 130 127 127 128 130 129 128 130 130 130 127 124 122 121 118 118 117 118 117 115 117 117 111 105 103 101 96 92 89 89 90 94 94 97 98 96 92 92 90 88 92 99 103 104 103 99 93 87 83 96 108 106 105 109 114 109 104 93 87 84 83 70 36 75 62 15 64 111 114 104 93 93 98 100 99 93 87 91
122 123 125 132 133 127 129 129 128 127 129 133 134 134 134 132 129 128 126 123 124 123 119 117 115 118 118 118 119 112 107 101 97 95 91 88 91 89 89 88 89 86 84 84 85 88 91 95 100 105 108 107 101 91 84 90 107 115 113 112 110 108 108 102 96 94 85 80 76 56 42 34 111 107 107 109 100 96 90 101 104 97 92 86 85
128 126 126 127 124 128 128 130 129 127 131 135 137 137 136 133 128 127 124 118 120 118 122 121 117 116 120 118 114 111 107 102 97 91 89 87 85 89 89 89 87 89 90 94 99 100 104 109 110 106 107 106 99 91 88 94 114 117 115 114 114 113 111 104 96 94 89 79 65 56 43 24 51 96 101 103 104 93 87 84 87 87 84 81 80
127 126 125 123 130 130 129 129 130 132 134 138 138 137 137 135 132 127 124 118 121 114 111 122 122 122 119 119 119 115 110 105 102 99 97 98 97 98 94 91 90 92 96 93 94 99 102 108 108 102 93 90 92 90 93 104 121 122 120 118 117 116 111 104 99 92 90 87 81 62 44 31 341 112 108 103 96 90 86 82 81 78 76 79 81
130 127 124 125 128 129 130 131 133 135 134 131 133 134 135 135 134 127 128 128 126 113 110 123 126 126 121 121 120 116 116 110 106 105 104 102 100 98 102 102 99 89 91 93 92 96 103 108 108 104 95 87 85 87 95 112 124 126 123 122 120 117 112 101 98 94 93 93 85 87 77 78 85 93 105 106 98 93 90 87 84 82 79 78 80
121 122 123 122 125 128 131 135 136 132 127 129 131 133 134 138 138 136 132 131 126 119 116 112 120 123 118 119 122 121 114 111 111 108 108 105 103 103 103 106 96 93 89 87 92 97 105 109 104 98 94 87 83 85 95 117 129 128 124 123 123 122 119 111 103 95 95 88 88 83 99 102 106 119 107 97 100 100 97 92 91 87 83 77 74
119 119 120 123 121 122 123 126 131 131 128 129 133 132 135 141 144 140 137 135 130 126 119 117 106 97 107 111 112 118 120 112 110 110 109 108 103 102 101 95 92 93 87 85 88 93 99 98 94 89 86 87 83 79 94 119 133 129 128 128 127 125 123 118 107 107 100 103 95 85 90 109 121 110 105 104 103 101 95 89 85 87 86 82 78
118 118 120 116 115 115 118 120 124 125 133 132 133 132 137 142 144 143 140 138 133 132 122 115 110 112 113 112 113 118 115 110 108 108 107 109 105 102 102 99 93 84 88 84 80 81 86 87 85 80 75 79 81 79 88 119 134 134 133 132 130 130 130 123 113 115 107 97 87 88 113 115 109 111 109 108 104 101 98 97 94 89 89 94 91
115 117 115 119 115 110 107 115 121 118 115 116 125 136 138 140 141 147 144 141 137 136 128 124 122 125 121 121 119 119 119 115 112 111 114 110 111 104 98 86 73 69 71 73 65 63 61 70 74 69 69 70 76 78 81 115 136 136 136 135 133 133 131 121 119 112 106 98 102 105 113 121 132 126 125 114 112 109 104 98 100 99 94 91 93
115 117 115 113 114 114 116 119 118 118 113 118 126 133 139 138 140 139 143 146 143 137 131 131 133 129 128 125 126 120 115 120 123 122 124 118 108 112 104 95 70 46 45 50 44 35 39 43 53 57 63 70 78 83 89 116 135 138 138 136 138 129 116 116 119 114 118 120 109 116 141 130 137 132 122 122 120 112 108 108 100 95 97 104 111
116 113 114 125 123 122 125 117 118 119 118 117 122 127 140 139 138 139 145 148 147 140 135 140 138 137 130 117 80 62 52 40 61 98 120 115 127 128 115 106 78 38 30 30 18 20 22 27 31 43 57 73 79 75 96 123 140 139 141 143 129 112 126 120 121 124 119 114 119 267 160 155 146 139 130 126 126 118 110 108 113 109 120 120 118
126 124 120 131 131 133 127 121 116 121 116 105 111 123 124 123 119 133 137 145 145 142 136 135 132 78 106 72 71 67 55 50 29 51 43 88 123 137 137 129 134 84 27 12 11 3 10 12 17 30 56 74 67 46 48 121 145 145 147 127 110 126 125 132 130 138 129 129 151 229 181 175 163 144 141 136 130 119 125 129 120 115 115 129 127
130 137 141 143 142 133 130 127 128 121 108 104 108 97 96 100 104 111 120 134 131 111 93 99 64 81 76 80 81 85 79 62 8 68 112 94 32 209 148 155 138 91 52 354 358 354 355 5 5 30 55 61 57 48 54 39 135 150 130 109 124 128 133 135 144 147 149 156 177 240 194 202 181 162 147 138 132 137 142 142 127 122 137 130 146
145 151 149 139 143 143 138 135 132 123 121 125 104 101 103 108 111 97 84 87 91 102 89 88 73 84 98 85 77 70 60 31 39 29 30 38 1 355 224 153 50 8 355 23 7 4 357 6 13 32 53 55 46 53 64 42 89 83 101 122 130 143 147 151 156 158 160 172 171 235 179 205 188 173 157 158 145 148 161 144 139 138 133 136 131
154 146 149 155 151 144 139 137 130 129 128 132 120 108 111 108 101 101 103 94 93 90 87 84 89 86 85 71 71 79 67 46 29 22 35 50 12 357 5 33 54 78 30 12 3 349 7 349 349 25 60 76 64 45 64 77 88 113 124 137 138 145 147 153 155 162 177 179 186 209 184 194 179 183 173 151 181 187 165 159 144 143 150 150 134
159 162 164 150 151 146 144 134 128 127 127 128 126 146 130 116 110 123 106 87 94 96 91 88 104 96 102 100 70 79 84 59 32 19 24 76 124 110 33 20 27 3 1 343 329 336 337 345 343 349 30 99 115 119 104 116 129 140 143 147 154 162 168 169 174 178 190 197 205 192 180 178 179 171 171 168 173 193 148 150 144 145 147 163 165
172 169 157 154 145 139 141 135 134 132 131 129 127 133 128 130 122 126 120 94 96 104 84 82 87 99 115 131 119 65 41 73 87 76 10 62 203 193 183 146 153 172 298 310 312 322 326 334 337 328 325 103 129 140 155 162 162 161 168 169 166 170 182 186 185 186 196 206 225 194 181 181 186 187 180 176 194 171 167 160 154 146 154 170 187
154 154 160 152 150 153 145 141 139 141 143 148 142 144 135 135 154 151 119 145 126 109 104 105 107 115 124 119 121 108 107 41 312 305 218 173 233 237 193 183 198 227 189 288 310 321 326 330 327 319 322 324 115 132 157 195 201 177 167 177 180 184 193 195 194 191 190 203 229 205 185 190 193 202 179 177 209 197 165 174 167 162 170 182 184
151 158 157 153 157 155 144 144 150 152 145 149 158 141 140 132 127 109 132 160 84 103 121 121 113 129 141 155 148 140 138 156 237 275 325 297 281 245 201 230 197 237 141 316 337 306 319 326 317 316 315 322 341 123 157 194 208 196 174 184 191 195 195 197 202 199 192 188 207 233 197 197 182 191 187 189 196 219 162 174 171 178 176 176 169
161 156 157 163 160 152 150 150 150 142 147 149 142 139 145 139 123 117 163 127 107 114 130 123 137 145 167 196 210 165 164 178 200 227 246 281 297 312 285 241 239 280 116 325 282 282 294 322 318 311 314 317 323 330 104 163 202 212 203 188 194 198 194 192 198 208 195 186 211 242 211 196 180 202 201 192 198 190 193 192 186 186 176 168 173
154 167 169 167 164 156 157 153 150 153 141 149 147 127 140 139 112 103 101 93 117 115 103 115 140 154 191 222 232 230 181 173 172 190 218 238 265 281 284 312 301 322 120 216 209 234 249 250 273 286 295 301 297 302 309 155 182 219 225 205 199 186 193 194 201 201 199 201 205 232 227 200 194 203 214 195 193 198 197 192 189 188 180 176 177
165 171 170 156 154 154 143 142 140 141 142 141 154 141 127 123 113 100 89 71 86 89 104 84 61 243 211 227 246 242 241 177 183 203 217 230 239 250 276 303 285 246 129 242 263 227 241 249 232 229 251 258 277 287 277 191 169 212 245 222 188 187 189 186 192 196 200 198 200 238 244 218 201 204 211 200 200 207 202 194 190 185 173 179 177
148 164 157 152 150 139 126 128 133 131 134 137 123 110 112 108 108 112 112 95 75 52 342 342 295 292 291 270 268 254 250 251 241 245 258 221 234 242 253 255 267 289 129 237 278 279 271 280 285 275 246 258 297 317 12 51 212 239 239 233 184 191 183 177 181 187 197 192 199 234 265 249 225 206 198 200 205 201 217 192 194 180 178 182 190
139 129 147 152 130 106 109 112 119 117 123 112 109 106 110 109 101 94 108 92 82 18 316 304 298 307 301 271 273 276 288 289 296 281 228 232 219 236 243 250 250 262 261 237 243 264 290 297 270 257 258 236 259 245 270 274 265 246 235 215 206 192 177 182 177 183 182 190 181 210 249 272 252 241 191 199 201 203 220 227 197 197 186 185 197
138 145 158 136 123 118 126 117 120 117 125 107 100 108 105 102 100 114 126 125 134 127 140 278 244 262 281 291 287 290 290 288 284 276 258 236 245 245 235 244 238 227 222 222 247 236 241 247 240 260 270 282 307 278 237 234 241 247 234 197 201 183 193 190 176 177 185 184 172 192 218 252 260 268 230 205 201 205 221 237 220 194 187 191 202
148 144 139 134 118 119 119 117 117 112 97 99 97 91 105 98 111 132 110 134 112 257 249 262 285 295 287 297 296 292 292 285 275 264 267 254 253 258 250 216 210 203 224 212 232 248 232 241 249 246 268 256 284 268 223 234 237 251 234 205 201 185 191 186 193 195 191 172 177 168 194 237 258 247 248 219 202 206 217 223 216 180 193 185 191
137 139 140 129 118 122 124 117 104 89 79 91 83 88 93 95 89 69 123 121 172 219 230 202 222 236 242 252 262 277 286 280 261 254 253 260 257 262 266 236 189 196 203 211 223 242 248 255 258 227 215 250 232 261 268 231 247 261 255 234 216 199 196 194 194 197 174 180 166 178 181 205 222 223 211 207 214 203 215 214 210 180 191 179 194
143 135 149 135 131 124 112 116 102 111 119 97 97 96 89 88 77 62 59 137 231 220 215 200 206 220 213 231 236 241 249 248 249 246 249 258 261 264 280 282 260 220 209 197 224 218 221 218 256 268 245 196 239 249 254 164 257 265 261 243 221 215 215 205 197 188 186 176 182 197 198 209 220 216 204 194 204 203 202 210 206 192 190 181 194
139 139 145 122 110 101 107 109 99 97 92 106 97 93 94 78 69 48 351 291 255 250 218 225 222 215 213 218 220 223 237 235 236 238 248 254 264 264 265 278 277 273 265 261 256 240 234 229 240 257 247 219 243 237 246 234 239 256 247 248 222 213 219 212 198 191 193 190 193 206 184 214 206 219 213 203 197 196 196 193 200 197 196 186 187
131 133 130 113 106 100 100 94 98 97 103 87 88 71 67 44 10 347 350 351 338 324 294 250 270 273 281 246 244 242 237 239 230 229 235 257 261 265 272 286 286 275 267 265 265 262 260 249 242 245 248 229 223 244 246 243 233 211 225 238 234 234 215 206 198 196 194 176 200 214 199 221 208 217 222 213 200 195 192 190 188 190 186 186 178
124 131 137 130 121 121 119 103 105 117 110 111 86 89 81 59 328 313 294 292 296 313 322 339 339 310 308 301 273 262 250 250 243 212 240 254 259 263 266 276 277 282 281 279 270 264 251 249 254 234 252 253 231 220 235 198 198 229 201 222 262 228 228 215 210 200 199 188 202 215 206 204 205 206 212 209 204 197 193 188 186 177 185 185 186
124 117 111 110 112 111 105 102 96 88 81 98 106 112 103 152 161 204 211 255 2 16 351 16 337 313 298 288 275 261 258 254 263 239 253 249 265 275 271 271 265 255 263 269 278 276 274 260 253 260 228 250 260 193 204 128 229 230 225 260 235 217 215 219 224 220 212 199 200 210 201 204 208 206 199 203 210 204 195 190 178 179 183 183 189
110 108 108 107 102 95 82 67 61 77 81 97 110 137 180 172 164 222 150 356 74 38 13 326 3 18 19 6 343 320 292 283 259 247 243 251 257 265 265 261 255 268 269 257 260 270 267 262 255 259 273 222 241 196 178 187 220 198 241 234 241 237 235 233 230 231 215 210 206 214 210 212 213 200 202 210 214 207 199 187 185 180 181 187 190
98 96 95 90 78 75 82 78 75 76 86 135 154 185 167 152 152 116 109 112 72 30 45 36 28 25 24 10 18 7 352 328 322 289 263 246 262 277 272 265 273 268 276 281 277 259 255 251 250 252 248 267 234 236 193 200 207 135 253 212 224 157 308 238 217 227 211 208 207 216 211 216 210 196 197 209 212 210 199 187 190 186 186 187 186
97 96 93 87 81 82 78 77 74 70 52 55 60 69 72 57 55 57 66 68 43 38 41 29 22 21 26 19 9 10 9 2 349 336 316 300 288 284 296 303 309 310 295 274 279 278 272 262 262 257 240 245 260 244 219 203 210 203 200 110 27 286 222 268 193 243 183 208 215 212 216 219 212 205 205 213 211 211 197 194 194 188 189 189 187
86 87 94 91 92 78 75 77 68 60 55 51 56 85 74 79 67 59 46 48 50 28 38 19 9 22 17 350 11 18 16 11 5 356 346 332 326 320 314 309 312 304 302 303 295 288 284 280 260 260 266 241 240 255 258 208 221 222 229 228 154 197 255 248 172 272 199 221 207 206 213 218 214 208 205 208 208 211 202 201 189 192 189 188 190
97 97 92 94 92 92 85 78 75 67 62 60 45 65 74 73 74 85 90 91 92 50 33 14 28 21 17 26 17 19 20 13 3 2 355 343 333 326 317 310 301 302 300 281 277 274 273 272 271 260 254 250 236 252 252 244 194 221 231 228 224 206 196 173 220 7 294 200 208 208 212 212 214 208 208 215 209 205 205 203 196 192 188 186 189
112 103 97 96 96 97 88 76 72 66 55 72 66 55 75 71 79 75 72 66 71 72 23 32 29 28 34 30 25 26 18 16 5 360 0 356 350 343 335 326 323 311 306 288 271 269 272 272 274 278 262 250 248 249 261 249 229 221 215 231 228 227 218 221 197 202 198 246 233 207 219 210 209 214 212 215 211 208 207 205 202 192 189 189 188
100 100 100 98 93 86 84 83 72 60 49 47 77 75 69 66 64 76 82 43 45 43 26 23 29 15 40 23 30 22 17 8 7 3 1 2 359 348 336 331 329 325 320 312 301 293 290 295 295 290 289 263 243 240 239 247 213 240 211 231 233 233 228 226 229 191 213 219 252 223 226 205 215 218 216 213 215 211 207 203 198 192 186 187 189
99 98 94 91 87 91 89 82 76 67 61 58 57 56 73 85 76 57 72 68 44 42 41 36 28 20 39 24 14 17 8 10 0 5 5 3 360 359 355 346 336 326 323 313 310 304 296 292 295 301 303 306 300 287 248 246 236 243 227 235 232 241 237 219 212 218 228 220 244 237 220 203 215 221 209 213 211 208 209 204 201 199 193 189 190
95 95 93 87 85 81 81 77 72 68 55 50 52 55 50 54 71 73 69 62 51 53 54 38 22 37 38 17 12 1 11 12 1 5 8 1 1 2 358 354 351 344 331 322 316 310 307 303 302 301 299 298 295 281 250 237 237 241 243 239 240 236 230 224 221 218 219 210 218 245 243 219 221 227 215 212 210 207 206 207 196 199 197 197 194